Weather History for Sydney Airport, New South Wales

Change the Weather History Date:

Monday, September 23, 2013

  Actual Average Record
Temperature  
Mean Temperature 66 °F -  
Max Temperature 77 °F 71 °F - ()
Min Temperature 56 °F 55 °F - ()
Cooling Degree Days 2    
Growing Degree Days 16 (Base 50)    
Moisture  
Dew Point 51 °F    
Average Humidity 55    
Maximum Humidity 83    
Minimum Humidity 23    
Precipitation  
Precipitation 0.00 in 0.10 in - ()
Sea Level Pressure  
Sea Level Pressure 29.82 in    
Wind  
Wind Speed 6 mph ()    
Max Wind Speed 13 mph    
Max Gust Speed -    
Visibility 9.2 miles    
Events      
T = Trace of Precipitation, MM = Missing Value Source: Averaged Metar Reports

Daily Weather History Graph

Daily Weather History Graph

Search for Another Location

Airport:

Trip Planner

Search our weather history database for the weather conditions in past years. The results will help you decide how hot, cold, wet, or windy it might be!

Date:

Astronomy

Sep. 23, 2013 Rise Set
Actual Time 5:43 AM EST 5:52 PM EST
Civil Twilight 5:18 AM EST 6:17 PM EST
Nautical Twilight 4:49 AM EST 6:46 PM EST
Astronomical Twilight 4:20 AM EST 7:15 PM EST
Moon 9:42 PM EST (9/23) 7:45 AM EST (9/23)
Length of Visible Light 12h 58m
Length of Day
12h 08m
Waning Gibbous, 86% of the Moon is Illuminated
Sep 23
Waning Gibbous
Sep 27
Last Quarter
Oct 5
New
Oct 12
First Quarter
Oct 19
Full

Hourly Weather History & Observations

Time (EST) Temp. Dew Point Humidity Pressure Visibility Wind Dir Wind Speed Gust Speed Precip Events Conditions
12:00 AM 63 °F 54 °F 64% 29.94 in 19 mi SW 3.5 mph - -   Scattered Clouds
12:30 AM 62.6 °F 55.4 °F 77% 29.95 in 6.2 mi SSW 9.2 mph - N/A   Scattered Clouds
1:00 AM 62 °F 52 °F 61% 29.92 in - East 4.6 mph - -  
1:00 AM 62.6 °F 51.8 °F 68% 29.92 in 6.2 mi East 4.6 mph - N/A   Scattered Clouds
1:30 AM 60.8 °F 51.8 °F 72% 29.89 in 6.2 mi NNE 1.2 mph - N/A   Partly Cloudy
2:00 AM 59 °F 52 °F 71% 29.90 in - Calm Calm - -  
2:00 AM 59.0 °F 51.8 °F 77% 29.89 in 6.2 mi Calm Calm - N/A   Partly Cloudy
2:30 AM 59.0 °F 53.6 °F 82% 29.89 in 6.2 mi Calm Calm - N/A   Scattered Clouds
3:00 AM 59 °F 53 °F 73% 29.88 in 19 mi West 4.6 mph - -   Scattered Clouds
3:30 AM 59.0 °F 51.8 °F 77% 29.86 in 6.2 mi WSW 4.6 mph - N/A   Scattered Clouds
4:00 AM 58 °F 52 °F 73% 29.87 in - NW 4.6 mph - -  
4:00 AM 57.2 °F 51.8 °F 82% 29.86 in 6.2 mi NW 4.6 mph - N/A   Scattered Clouds
4:30 AM 59.0 °F 51.8 °F 77% 29.86 in 6.2 mi NW 8.1 mph - N/A   Scattered Clouds
5:00 AM 57 °F 50 °F 71% 29.88 in - NW 8.1 mph - -  
5:00 AM 57.2 °F 50.0 °F 77% 29.86 in 6.2 mi NW 8.1 mph - N/A   Scattered Clouds
5:30 AM 57.2 °F 50.0 °F 77% 29.86 in 6.2 mi NNW 6.9 mph - N/A   Scattered Clouds
6:00 AM 56 °F 50 °F 75% 29.88 in 16 mi NW 6.9 mph - -   Haze
6:00 AM 57.2 °F 50.0 °F 77% 29.86 in - NW 6.9 mph - N/A   Clear
7:00 AM 60 °F 50 °F 60% 29.90 in - NW 9.2 mph - -  
7:00 AM 60.8 °F 50.0 °F 68% 29.89 in - NW 9.2 mph - N/A   Clear
7:30 AM 62.6 °F 50.0 °F 63% 29.89 in - NW 8.1 mph - N/A   Clear
8:00 AM 64 °F 49 °F 48% 29.90 in - NW 6.9 mph - -  
8:00 AM 64.4 °F 50.0 °F 59% 29.89 in - NW 6.9 mph - N/A   Clear
8:30 AM 66.2 °F 50.0 °F 56% 29.89 in - NW 6.9 mph - N/A   Clear
9:00 AM 68 °F 48 °F 37% 29.89 in 11 mi NW 5.8 mph - -   Haze
9:00 AM 68.0 °F 48.2 °F 49% 29.89 in 6.2 mi NW 5.8 mph - N/A   Partly Cloudy
9:30 AM 69.8 °F 48.2 °F 46% 29.86 in - NW 8.1 mph - N/A   Clear
10:00 AM 72 °F 49 °F 33% 29.87 in - West 6.9 mph - -  
10:00 AM 73.4 °F 50.0 °F 44% 29.86 in - West 6.9 mph - N/A   Clear
10:30 AM 73.4 °F 46.4 °F 38% 29.83 in - West 6.9 mph - N/A   Clear
11:00 AM 75 °F 45 °F 23% 29.84 in - ESE 11.5 mph - -  
11:00 AM 75.2 °F 44.6 °F 34% 29.83 in - ESE 11.5 mph - N/A   Clear
11:30 AM 73.4 °F 51.8 °F 47% 29.80 in - ESE 10.4 mph - N/A   Clear
12:00 PM 75 °F 49 °F 29% 29.81 in 16 mi ESE 10.4 mph - -   Haze
12:30 PM 75.2 °F 50.0 °F 41% 29.77 in - ESE 10.4 mph - N/A   Clear
1:00 PM 76 °F 50 °F 30% 29.78 in - ESE 11.5 mph - -  
1:00 PM 77.0 °F 50.0 °F 39% 29.77 in - ESE 11.5 mph - N/A   Clear
1:30 PM 75.2 °F 50.0 °F 41% 29.77 in 6.2 mi ESE 10.4 mph - N/A   Partly Cloudy
2:00 PM 75 °F 51 °F 32% 29.76 in - East 10.4 mph - -  
2:00 PM 75.2 °F 50.0 °F 41% 29.74 in 6.2 mi East 10.4 mph - N/A   Partly Cloudy
2:30 PM 75.2 °F 48.2 °F 38% 29.74 in 6.2 mi East 10.4 mph - N/A   Partly Cloudy
3:00 PM 75 °F 46 °F 25% 29.74 in 22 mi East 10.4 mph - -   Partly Cloudy
3:00 PM 75.2 °F 46.4 °F 36% 29.74 in - East 10.4 mph - N/A   Clear
3:30 PM 75.2 °F 53.6 °F 47% 29.74 in - East 11.5 mph - N/A   Clear
4:00 PM 74 °F 53 °F 36% 29.74 in - ENE 12.7 mph - -  
4:00 PM 73.4 °F 51.8 °F 47% 29.74 in - ENE 12.7 mph - N/A   Clear
4:30 PM 73.4 °F 50.0 °F 44% 29.74 in - ENE 11.5 mph - N/A   Clear
5:00 PM 74 °F 45 °F 25% 29.75 in - ENE 11.5 mph - -  
5:00 PM 73.4 °F 44.6 °F 36% 29.74 in - ENE 11.5 mph - N/A   Clear
5:30 PM 73.4 °F 46.4 °F 38% 29.74 in - NE 9.2 mph - N/A   Clear
6:00 PM 72 °F 50 °F 35% 29.77 in 25 mi NNE 5.8 mph - -   Partly Cloudy
6:00 PM 71.6 °F 50.0 °F 46% 29.77 in - NNE 5.8 mph - N/A   Clear
6:30 PM 69.8 °F 55.4 °F 60% 29.77 in - NE 8.1 mph - N/A   Clear
7:00 PM 70 °F 57 °F 53% 29.80 in - NE 6.9 mph - -  
7:00 PM 69.8 °F 57.2 °F 64% 29.77 in - NE 6.9 mph - N/A   Clear
7:30 PM 69.8 °F 55.4 °F 60% 29.77 in - ENE 4.6 mph - N/A   Clear
8:00 PM 70 °F 55 °F 48% 29.80 in - NE 2.3 mph - -  
8:00 PM 69.8 °F 55.4 °F 60% 29.80 in - NE 2.3 mph - N/A   Clear
8:30 PM 69.8 °F 55.4 °F 60% 29.80 in - North 1.2 mph - N/A   Clear
9:00 PM 65 °F 60 °F 80% 29.80 in 16 mi SW 4.6 mph - -   Haze
9:00 PM 66.2 °F 60.8 °F 83% 29.80 in - SW 4.6 mph - N/A   Clear
9:30 PM 66.2 °F 57.2 °F 73% 29.80 in - West 3.5 mph - N/A   Clear
10:00 PM 67 °F 54 °F 52% 29.80 in - WNW 4.6 mph - -  
10:00 PM 66.2 °F 53.6 °F 64% 29.80 in - WNW 4.6 mph - N/A   Clear
10:30 PM 66.2 °F 51.8 °F 60% 29.77 in - NW 5.8 mph - N/A   Clear
11:00 PM 68 °F 51 °F 43% 29.77 in - North 4.6 mph - -  
11:00 PM 68.0 °F 50.0 °F 52% 29.74 in - North 4.6 mph - N/A   Clear
11:30 PM 68.0 °F 51.8 °F 56% 29.74 in - North 5.8 mph - N/A   Clear